Florala, AL

5:33 AM CST on February 24, 2017 (GMT -0600)
Florala

Weather History for K0J4 - November, 2012

Change the Weather History Date:

Friday, November 16, 2012

  Actual Average (KCEW) Record (KCEW)
Temperature  
Mean Temperature 53 °F -  
Max Temperature 61 °F 71 °F 84 °F (1993)
Min Temperature 44 °F 45 °F 29 °F (1975)
Degree Days  
Heating Degree Days 12    
Growing Degree Days 3 (Base 50)    
Moisture  
Dew Point 45 °F    
Average Humidity 81    
Maximum Humidity 90    
Minimum Humidity 60    
Precipitation  
Precipitation 0.00 in - - ()
Sea Level Pressure  
Sea Level Pressure 30.26 in    
Wind  
Wind Speed 4 mph (NE)    
Max Wind Speed 9 mph    
Max Gust Speed -    
Visibility 10 miles    
Events      
Averages and records for this station are not official NWS values.
T = Trace of Precipitation, MM = Missing Value Source: NWS Daily Summary

Daily Weather History Graph

Daily Weather History Graph

Search for Another Location

Airport or City:

Trip Planner

Search our weather history database for the weather conditions in past years. The results will help you decide how hot, cold, wet, or windy it might be!

Date:

Astronomy

Nov. 16, 2012 Rise Set
Actual Time 6:13 AM CST 4:46 PM CST
Civil Twilight 5:47 AM CST 5:12 PM CST
Nautical Twilight 5:18 AM CST 5:41 PM CST
Astronomical Twilight 4:49 AM CST 6:10 PM CST
Moon 9:04 AM CST (11/16) 7:47 PM CST (11/16)
Length of Visible Light 11h 24m
Length of Day
10h 33m
Waxing Crescent, 12% of the Moon is Illuminated
Nov 16
Waxing Crescent
Nov 20
First Quarter
Nov 28
Full
Dec 6
Last Quarter
Dec 13
New

Hourly Weather History & Observations

Time (CST) Temp. Windchill Dew Point Humidity Pressure Visibility Wind Dir Wind Speed Gust Speed Precip Events Conditions
12:58 AM 48.9 °F - 44.1 °F 83% 30.25 in 10.0 mi Calm Calm - N/A   Overcast
1:58 AM 48.0 °F - 44.1 °F 86% 30.25 in 10.0 mi Calm Calm - N/A   Overcast
2:58 AM 48.9 °F - 45.0 °F 86% 30.24 in 10.0 mi East 4.6 mph - N/A   Overcast
3:30 AM 48.2 °F - 44.6 °F 87% 30.24 in 10.0 mi ENE 5.8 mph - N/A   Overcast
3:58 AM 48.9 °F - 45.0 °F 86% 30.24 in 10.0 mi East 5.8 mph - N/A   Overcast
4:58 AM 48.0 °F - 44.1 °F 86% 30.24 in 10.0 mi ENE 6.9 mph - N/A   Overcast
5:58 AM 48.0 °F - 44.1 °F 86% 30.26 in 10.0 mi NNE 4.6 mph - N/A   Overcast
6:58 AM 48.0 °F - 44.1 °F 86% 30.28 in 10.0 mi East 5.8 mph - N/A   Overcast
7:58 AM 48.9 °F - 44.1 °F 83% 30.30 in 10.0 mi ENE 6.9 mph - N/A   Overcast
8:58 AM 50.0 °F - 45.0 °F 83% 30.30 in 10.0 mi ENE 8.1 mph - N/A   Overcast
9:58 AM 50.0 °F - 45.0 °F 83% 30.30 in 10.0 mi NE 8.1 mph - N/A   Overcast
10:58 AM 51.1 °F - 45.0 °F 80% 30.29 in 10.0 mi NE 9.2 mph - N/A   Overcast
11:13 AM 51.8 °F - 46.4 °F 82% 30.29 in 10.0 mi NE 9.2 mph - N/A   Overcast
11:58 AM 52.0 °F - 46.0 °F 80% 30.27 in 10.0 mi NNE 8.1 mph - N/A   Overcast
12:37 PM 53.6 °F - 46.4 °F 77% 30.26 in 10.0 mi NNE 6.9 mph - N/A   Overcast
12:58 PM 55.0 °F - 46.9 °F 74% 30.25 in 10.0 mi NNE 5.8 mph - N/A   Overcast
1:58 PM 57.9 °F - 46.9 °F 67% 30.23 in 10.0 mi NE 4.6 mph - N/A   Overcast
2:07 PM 59.0 °F - 48.2 °F 67% 30.23 in 10.0 mi NNE 5.8 mph - N/A   Mostly Cloudy
2:58 PM 61.0 °F - 46.9 °F 60% 30.22 in 10.0 mi Variable 4.6 mph - N/A   Clear
3:58 PM 60.1 °F - 48.0 °F 64% 30.22 in 10.0 mi Calm Calm - N/A   Partly Cloudy
4:58 PM 52.0 °F - 48.0 °F 86% 30.23 in 10.0 mi Calm Calm - N/A   Clear
5:58 PM 48.9 °F - 46.0 °F 90% 30.24 in 10.0 mi Calm Calm - N/A   Clear
6:58 PM 48.9 °F - 44.1 °F 83% 30.26 in 10.0 mi NNE 3.5 mph - N/A   Clear
7:58 PM 53.1 °F - 44.1 °F 71% 30.27 in 10.0 mi ENE 6.9 mph - N/A   Clear
8:58 PM 46.0 °F 43.9 °F 42.1 °F 86% 30.28 in 10.0 mi NE 4.6 mph - N/A   Clear
9:58 PM 45.0 °F - 41.0 °F 86% 30.30 in 10.0 mi Calm Calm - N/A   Clear
10:58 PM 48.0 °F - 42.1 °F 80% 30.30 in 10.0 mi Calm Calm - N/A   Clear
11:58 PM 44.1 °F - 41.0 °F 89% 30.29 in 10.0 mi Calm Calm - N/A   Clear